Location: Gleizolles
(44.4833°N, 6.7667°E)
Time: 00:48:22
(UTC+00:00)

Vanguard 2 - Visible Passes

Search period start: 25 May 2025 00:00
Search period end: 04 June 2025 00:00
Orbit: 553 x 2900 km, 32.9° (Epoch: 24 May)

Date Brightness Start Highest point End Pass type
(mag) Time Alt. Az. Time Alt. Az. Time Alt. Az.
25 May 11.0 01:53:52 15° SSW 01:53:52 15° SSW 01:58:19 10° S visible
25 May 9.1 19:29:55 10° SW 19:35:02 30° SSE 19:42:41 10° ESE visible
25 May 9.3 21:36:05 10° WSW 21:43:00 38° S 21:47:49 27° SE visible
25 May 10.2 23:43:48 10° WSW 00:07:26 - SE 23:48:41 25° SW visible
26 May 9.0 19:42:07 10° SW 19:47:19 32° SSE 19:55:08 10° ESE visible
26 May 9.4 21:48:33 10° WSW 21:55:23 36° S 21:58:26 30° SSE visible
26 May 10.5 23:56:46 10° WSW 23:59:20 17° WSW 23:59:20 17° WSW visible
27 May 9.0 19:54:24 10° SW 19:59:37 33° S 20:07:30 10° ESE visible
27 May 9.6 22:01:07 10° WSW 22:07:46 32° S 22:09:16 31° S visible
28 May 10.7 00:10:02 10° WSW 00:10:11 10° WSW 00:10:11 10° WSW visible
28 May 9.0 20:06:46 10° WSW 20:11:57 32° S 20:19:19 11° ESE visible
28 May 9.7 22:13:47 10° WSW 22:20:11 28° SSW 22:20:14 28° SSW visible
29 May 9.1 20:19:11 10° WSW 20:24:19 31° S 20:30:23 14° SE visible
29 May 9.9 22:26:37 10° WSW 22:31:18 22° SSW 22:31:18 22° SSW visible
30 May 9.2 20:31:41 10° WSW 20:36:42 28° S 20:41:31 17° SE visible
30 May 10.2 22:39:42 10° WSW 22:42:27 16° SW 22:42:27 16° SW visible
31 May 9.4 20:44:17 10° WSW 20:49:05 24° S 20:52:44 18° SSE visible
31 May 10.5 22:53:21 10° SW 22:53:41 11° SW 22:53:41 11° SW visible
01 Jun 9.6 20:57:02 10° WSW 21:01:28 21° SSW 21:04:01 18° SSE visible
02 Jun 9.8 21:10:02 10° SW 21:13:51 17° SSW 21:15:20 16° S visible
03 Jun 10.0 21:23:37 10° SW 21:26:16 12° SSW 21:26:42 12° SSW visible
